Location: Stamford Observatory
(41.1241°N, 73.5498°W)
Time: 04:56:10
(UTC-05:00)

Daily predictions for brighter satellites

Satellite Brightness Start Highest point End
(mag) Time Altitude Azimuth Time Altitude Azimuth Time Altitude Azimuth
Lacrosse 5 4.2 03:52:22 18° NE 03:52:22 18° NE 03:53:43 10° NE
CENTAUR R/B 4.4 04:09:10 20° N 04:09:10 20° N 04:11:49 10° NNE
Cosmos 2369 Rocket 2.4 04:31:57 60° NNE 04:32:47 69° ENE 04:38:27 10° SSE
Meteor 1-11 Rocket 4.1 04:30:41 10° S 04:36:25 66° E 04:42:04 10° NNE
Meteor 2-4 Rocket 4.4 04:38:04 14° N 04:42:50 52° ENE 04:48:24 10° SSE
Lacrosse 4 Rocket 3.4 04:43:15 20° NNE 04:44:25 23° NE 04:47:41 10° ESE
Meteor 1-13 Rocket 4.2 04:43:13 43° N 04:45:20 87° W 04:51:14 10° S
Cosmos 1025 Rocket 4.1 04:43:54 26° NNE 04:45:56 43° ENE 04:50:03 10° SSE
Cosmos 1943 3.0 04:57:04 40° SW 04:59:08 72° WNW 05:04:48 10° NNE
Cosmos 2341 Rocket 4.1 04:53:09 10° S 04:59:24 78° E 05:05:39 10° N
Cosmos 1943 Rocket 2.8 04:56:05 21° N 04:59:35 52° ENE 05:04:57 10° SE
Cosmos 1452 Rocket 3.4 05:00:58 42° NNW 05:02:49 86° WSW 05:08:06 10° SSE
Abrixas rocket 4.3 05:05:41 21° NNE 05:05:41 21° NNE 05:07:16 10° NE
CZ-3 R/B 3.5 05:01:24 10° WSW 05:13:01 27° S 05:17:32 10° SE
Cosmos 546 4.5 05:16:08 70° W 05:16:28 77° NNW 05:20:24 10° NE
Cosmos 1544 Rocket 4.5 05:13:40 10° SSE 05:17:52 49° E 05:22:08 10° NNE
USA 229 DEB 3.6 05:11:47 10° SW 05:18:40 81° NW 05:25:40 10° NNE
USA 229 3.6 05:11:54 10° SW 05:18:46 82° NW 05:25:46 10° NNE
Tiangong 2 1.9 05:20:00 41° S 05:20:00 41° S 05:22:39 10° SE
Cosmos 2154 Rocket 4.0 05:14:26 10° SSW 05:20:29 55° W 05:26:34 10° N
COSMO-SKYMED 1 2.5 05:21:56 10° S 05:26:14 63° W 05:28:34 26° NNW
Cosmos 1461 3.7 05:22:59 10° SSW 05:27:12 52° ESE 05:31:16 10° NE
Cosmos 1900 4.3 05:26:55 35° NW 05:28:50 59° WSW 05:33:41 10° SSE
Cosmos 1536 3.5 05:25:45 10° SSW 05:31:50 21° NNW 05:33:23 10° N
NOAA 6 4.2 05:26:40 10° N 05:31:36 49° WNW 05:36:31 10° SW
Lacrosse 5 3.0 05:31:36 25° NW 05:32:03 25° NNW 05:36:18 10° NNE
USA 129 3.9 05:32:14 10° SE 05:34:07 26° ENE 05:35:01 19° NNE
Okean 2 3.3 05:31:21 11° N 05:35:18 84° W 05:39:26 10° S
Cosmos 2084 3.3 05:39:21 27° WSW 05:41:08 49° NW 05:44:51 10° NNE
Cosmos 44 4.3 05:41:02 26° WNW 05:42:22 30° NW 05:46:53 10° NNE
SL-8 Rocket 3.9 05:37:29 10° S 05:43:44 79° W 05:49:58 10° N
Cosmos 1892 Rocket 3.5 05:39:54 10° NNW 05:44:23 75° W 05:48:51 10° S
USA 215 3.2 05:39:12 10° NE 05:45:46 85° NW 05:52:18 10° SW
Meteor 1-28 Rocket 3.1 05:42:18 10° S 05:46:05 66° W 05:49:43 11° NNW
CZ-4 R/B 2.5 05:42:29 10° NNE 05:46:15 44° E 05:49:58 10° S
Cosmos 1269 Rocket 3.9 05:41:28 10° SSW 05:46:43 67° WNW 05:52:01 10° NNE
Cosmos 1340 2.7 05:47:12 16° NNW 05:50:05 54° W 05:53:46 10° S
CSL-04 Rocket 3.6 05:46:47 10° N 05:52:19 76° WNW 05:57:47 10° SSW
Lacrosse 5 rocket 3.8 05:50:16 10° NNW 05:52:44 15° NNE 05:55:15 10° ENE
Cosmos 1420 Rocket 4.2 05:48:40 14° NNW 05:53:02 52° WSW 05:58:04 10° S
SL-23 DEB 3.4 05:53:20 27° WNW 05:54:56 72° SW 05:58:41 10° SE
Cosmos 1959 Rocket 4.4 05:49:45 10° SSW 05:55:50 76° W 06:01:58 10° N
IRS-1A Rocket 4.5 05:50:20 10° NNE 05:56:07 80° ESE 06:01:58 10° SSW
Cosmos 2366 rocket 4.0 05:51:40 10° S 05:57:59 84° W 06:04:23 10° N
Ariane Rocket 3.2 05:56:45 10° N 06:01:36 48° WNW 06:06:27 10° SW
CSL-04 Debris 4.1 05:57:38 10° N 06:03:06 72° WNW 06:08:34 10° SSW
Cosmos 1455 Rocket 3.0 06:02:16 10° SSW 06:06:32 60° W 06:10:51 10° N
Cosmos 1048 Rocket 4.2 06:02:01 10° SW 06:06:58 48° WNW 06:12:01 10° N
Cosmos 2218 Rocket 4.1 06:04:18 10° SSW 06:10:36 59° W 06:16:56 10° N
SJ-12 4.0 06:08:32 10° NNE 06:12:43 85° E 06:16:53 10° SSW
ATLAS 5 CENTAUR R/B 4.3 06:08:54 10° N 06:13:08 20° NE 06:17:35 10° E
Cosmos 2369 Rocket 3.7 06:13:48 13° WNW 06:16:09 16° W 06:19:33 10° SW
Cosmos 1975 2.8 06:13:26 10° SSW 06:17:30 66° W 06:21:36 10° N
Meteor 1-29 3.5 06:16:58 10° SSE 06:20:18 60° ENE 06:23:39 10° N
Lacrosse 4 Rocket 2.2 06:19:38 11° NW 06:23:10 32° WSW 06:26:47 10° S
SPOT 3 Rocket 3.7 06:18:36 10° NNE 06:23:46 81° ESE 06:28:55 10° SSW
COSMOS 2406 3.2 06:18:36 10° SSW 06:24:13 68° WNW 06:29:54 10° NNE
ATLAS 3B R/B 4.3 06:21:52 10° NNW 06:27:34 26° NE 06:33:01 10° E
Cosmos 1727 Rocket 4.2 06:26:40 10° NNW 06:32:40 53° W 06:38:40 10° SSW
MOS 1 4.3 06:29:07 10° NNE 06:34:48 83° WNW 06:40:27 10° SSW
NOSS 3-1 (C) 3.5 06:30:28 10° SW 06:36:14 60° NW 06:42:43 10° NNE
Cosmos 1867 4.4 06:31:14 10° NNW 06:36:33 49° NE 06:41:47 10° SE
SL-27 R/B 3.2 06:36:09 10° SW 06:39:24 33° WNW 06:42:44 10° N
MSX 4.1 06:35:41 10° NNE 06:41:27 80° ESE 06:47:12 10° S
Cosmos 494 Rocket 4.0 06:36:42 10° SSW 06:41:50 81° WNW 06:47:02 10° NNE
